Location: ??
(35.5138°N, 139.6953°E)
Time: 08:07:04
(UTC+00:00)

Resurs 01 Rocket - Pass Details

Date: 07 June 2020
Orbit: 633 x 645 km, 98.0° (Epoch: 05 July)

Event Time Altitude Azimuth Distance (km) Brightness Sun altitude
Exits shadow 11:25:59 20° 173° (S) 1,504 3.1 -15.7°
Maximum altitude 11:29:05 78° 257° (WSW) 663 1.7 -16.2°
Drops below altitude 10° 11:33:33 10° 345° (NNW) 2,044 5.1 -16.8°
Sets 11:35:46 0° 347° (NNW) 2,956 6.1 -17.1°
